loading
|

THOR ABLESTAR DEB, 404

Orbit data source: Space-Track

THOR ABLESTAR DEB, 404 is space debris in LEO originally from a launch on Thu, 29 Jun 1961 UTC launched from the Air Force Eastern Test Range (AFETR). Debris objects in space refer to the collection of defunct objects orbiting the Earth. Examples of debris include non-operational satellites, rocket bodies, and fragments generated from explosions, collisions, or faulty payload assembly.

Loading next visibility...
Loading greatness...
THOR ABLESTAR DEB details
Identifier
404, 1961-015ED
Orbit
LEO
Last TLE update1 day ago
Origin
Flag of USUSAF SSD (US)
ManufacturerUnknown
Mission statusUnknown
MissionUnknown
Bus & MotorUnknown
MassUnknown
Launch date (UTC)
1961-06-29 (63 years ago)
Launch vehicleUnknown
Launch site
Air Force Eastern Test Range (AFETR)
Object type
Payload
Rocket body
Debris
Radar Cross SectionMedium (>0.1 m² and <1 m²)

Expand to show TLE details & history

TLE from 1 day ago
0 THOR ABLESTAR DEB
1 00404U 61015ED  24250.61004368  .00002150  00000-0  41009-2 0  9996
2 00404  66.4733  23.7435 0558551 159.7843 202.6291 12.91676864959486
Epoch: 2024-09-06T14:38Z
Definitive object data (Epoch: 2024-09-06T14:38:27.773Z)
Latitude-0.00007°
Longitude177.94764°
Altitude1,695.754 km
Speed6.843 km/s
True Right ascension01h 34m 58s
True Declination0° 00' 00"
Sunlit
Object was in full shadow at TLE epoch
Predictive object data (real-time)
Latitude21.50239°
Longitude-14.21484°
Altitude868.377 km
Speed7.624 km/s
Apparent Right ascension15h 52m 01s
Apparent Declination-15° 58' 12"
Sunlit
Object is in daylight
Predictive observer data (real-time)
Local Sidereal Time09:35:51
Azimuth99.909° ESE
Elevation-13.21°
Doppler factor1
Orbital elements
Apogee1,721.869 km
Perigee864.883 km
Semi-major axis7,671.513 km
Eccentricity0.0558551
Inclination66.4733°
RAAN23.7435°
Arg. of periapsis159.7843°
True anomaly200.31646°
Mean anomaly202.6291°
Eccentric anomaly201.45836°
Mean motion3.23014 °/min
BSTAR0.0041009
Period111.45 mins
No data available

THOR ABLESTAR DEB Visibility forecast

Observer location: 39.9160978°, -105.1181434

THOR ABLESTAR DEB is not visible in the next 10 days
Span
Click to sort rows by Start time (UTC) header in descending order
Start Az.
Max El. time (UTC)
Max El. Az.
Max El.
End time (UTC)
End Az.